Daviess Cnty AP, Washington,, IN

5:35 PM EST on December 07, 2019 (GMT -0500)
Daviess County

Weather History for KDCY - May, 2019

Change the Weather History Date:

Tuesday, May 21, 2019

  Actual Average (WUND) Record (WUND)
Temperature  
Mean Temperature 60 °F -  
Max Temperature 70 °F - - (-1)
Min Temperature 50 °F - - (-1)
Degree Days  
Heating Degree Days 5    
Growing Degree Days 10 (Base 50)    
Moisture  
Dew Point 52 °F    
Average Humidity 80    
Maximum Humidity 99    
Minimum Humidity 70    
Precipitation  
Precipitation 0.16 in - - ()
Sea Level Pressure  
Sea Level Pressure 29.96 in    
Wind  
Wind Speed 11 mph (East)    
Max Wind Speed 20 mph    
Max Gust Speed 22 mph    
Visibility 10 miles    
Events Rain    
Averages and records for this station are not official NWS values.
T = Trace of Precipitation, MM = Missing Value Source: NWS Daily Summary

Daily Weather History Graph

Daily Weather History Graph

Search for Another Location

Airport or City:

Astronomy

May. 21, 2019 Rise Set
Actual Time 6:31 AM EDT 8:58 PM EDT
Civil Twilight 6:01 AM EDT 9:29 PM EDT
Nautical Twilight 5:23 AM EDT 10:07 PM EDT
Astronomical Twilight 4:42 AM EDT 10:48 PM EDT
Moon 11:53 PM EDT (5/21) 8:47 AM EDT (5/21)
Length of Visible Light 15h 27m
Length of Day
14h 26m
Waning Gibbous, 91% of the Moon is Illuminated
May 21
Waning Gibbous
May 26
Last Quarter
Jun 3
New
Jun 10
First Quarter
Jun 17
Full

Hourly Weather History & Observations

Time (EDT) Temp. Dew Point Humidity Pressure Visibility Wind Dir Wind Speed Gust Speed Precip Events Conditions
12:15 AM 54.9 °F 46.9 °F 75% 30.06 in 10.0 mi NE 9.2 mph - N/A   Clear
12:35 AM 54.5 °F 46.4 °F 74% 30.07 in 10.0 mi NE 8.1 mph - N/A   Clear
12:55 AM 54.5 °F 46.4 °F 74% 30.05 in 10.0 mi NE 10.4 mph - N/A   Clear
1:15 AM 53.8 °F 46.0 °F 75% 30.04 in 10.0 mi NE 11.5 mph - N/A   Clear
1:35 AM 53.2 °F 46.4 °F 78% 30.04 in 10.0 mi ENE 9.2 mph - N/A   Clear
1:55 AM 53.1 °F 46.2 °F 78% 30.06 in 10.0 mi NE 6.9 mph - N/A   Clear
2:15 AM 52.7 °F 45.5 °F 76% 30.05 in 10.0 mi NE 8.1 mph - N/A   Clear
2:35 AM 52.5 °F 45.5 °F 77% 30.05 in 10.0 mi NE 9.2 mph - N/A   Clear
2:55 AM 52.2 °F 45.5 °F 78% 30.04 in 10.0 mi NE 8.1 mph - N/A   Clear
3:15 AM 51.8 °F 45.5 °F 79% 30.03 in 10.0 mi ENE 8.1 mph - N/A   Clear
3:30 AM 51.6 °F 45.9 °F 81% 30.03 in 10.0 mi ENE 9.2 mph - N/A   Clear
3:55 AM 51.3 °F 45.7 °F 81% 30.02 in 10.0 mi ENE 9.2 mph - N/A   Clear
4:15 AM 51.3 °F 44.4 °F 77% 30.02 in 10.0 mi ENE 12.7 mph 17.3 mph N/A   Clear
4:35 AM 50.9 °F 43.9 °F 77% 30.01 in 10.0 mi ENE 11.5 mph - N/A   Clear
4:55 AM 50.5 °F 43.3 °F 76% 30.00 in 10.0 mi East 12.7 mph 19.6 mph N/A   Clear
5:15 AM 50.4 °F 43.7 °F 78% 30.01 in 10.0 mi ENE 12.7 mph - N/A   Scattered Clouds
5:35 AM 50.5 °F 43.7 °F 77% 30.01 in 10.0 mi ENE 12.7 mph 18.4 mph N/A   Scattered Clouds
5:55 AM 50.5 °F 44.1 °F 78% 30.02 in 10.0 mi ENE 12.7 mph 16.1 mph N/A   Scattered Clouds
6:15 AM 50.5 °F 43.9 °F 78% 30.06 in 10.0 mi NE 8.1 mph - N/A   Mostly Cloudy
6:35 AM 50.7 °F 43.5 °F 76% 30.08 in 10.0 mi NE 11.5 mph - N/A   Scattered Clouds
6:55 AM 50.5 °F 43.7 °F 77% 30.06 in 10.0 mi ENE 13.8 mph 18.4 mph N/A   Clear
7:15 AM 50.5 °F 43.7 °F 77% 30.05 in 10.0 mi ENE 12.7 mph 18.4 mph N/A   Scattered Clouds
7:35 AM 50.9 °F 43.7 °F 76% 30.05 in 10.0 mi East 10.4 mph 16.1 mph N/A   Mostly Cloudy
7:55 AM 51.4 °F 44.2 °F 76% 30.04 in 10.0 mi East 13.8 mph - N/A   Mostly Cloudy
8:15 AM 51.8 °F 44.2 °F 75% 30.05 in 10.0 mi East 13.8 mph - N/A   Mostly Cloudy
8:35 AM 52.0 °F 45.0 °F 77% 30.04 in 10.0 mi East 11.5 mph - N/A Rain Light Rain
8:55 AM 51.4 °F 45.9 °F 81% 30.05 in 10.0 mi East 10.4 mph - N/A Rain Light Rain
9:15 AM 51.8 °F 46.8 °F 83% 30.03 in 10.0 mi East 12.7 mph - N/A   Overcast
9:35 AM 51.8 °F 46.8 °F 83% 30.04 in 10.0 mi ESE 12.7 mph - N/A Rain Light Rain
9:55 AM 51.8 °F 47.7 °F 86% 30.05 in 10.0 mi ESE 9.2 mph - N/A   Drizzle
10:15 AM 51.8 °F 48.4 °F 88% 30.02 in 3.0 mi East 12.7 mph - 0.01 in Rain Light Rain
10:30 AM 52.0 °F 48.9 °F 89% 30.03 in 10.0 mi East 11.5 mph - 0.01 in Rain Rain
10:55 AM 52.3 °F 50.2 °F 92% 30.01 in 10.0 mi East 10.4 mph - 0.03 in Rain Light Rain
11:15 AM 52.9 °F 50.0 °F 90% 30.00 in 10.0 mi East 11.5 mph 18.4 mph N/A Rain Light Rain
11:35 AM 53.2 °F 51.1 °F 92% 29.99 in 10.0 mi ESE 16.1 mph 20.7 mph N/A   Overcast
11:55 AM 53.4 °F 51.1 °F 92% 30.00 in 10.0 mi East 10.4 mph - N/A   Overcast
12:15 PM 54.0 °F 50.9 °F 89% 30.00 in 10.0 mi East 13.8 mph - N/A   Overcast
12:35 PM 54.1 °F 51.3 °F 90% 29.98 in 10.0 mi ESE 12.7 mph 20.7 mph N/A Rain Light Rain
12:55 PM 54.0 °F 53.1 °F 97% 29.99 in 7.0 mi East 10.4 mph - 0.01 in Rain Light Rain
1:15 PM 53.6 °F 53.2 °F 99% 29.96 in 4.0 mi ENE 10.4 mph - 0.10 in Rain Light Rain
1:30 PM 53.8 °F 53.6 °F 99% 29.97 in 5.0 mi East 11.5 mph - 0.12 in Rain Rain
1:50 PM 54.9 °F 54.7 °F 99% 29.96 in 10.0 mi ESE 8.1 mph - 0.12 in Rain Rain
2:15 PM 55.4 °F 55.0 °F 99% 29.96 in 10.0 mi East 12.7 mph 17.3 mph N/A   Overcast
2:35 PM 56.5 °F 55.4 °F 96% 29.95 in 10.0 mi East 13.8 mph - N/A   Overcast
2:55 PM 57.0 °F 55.8 °F 96% 29.95 in 10.0 mi East 10.4 mph - N/A   Overcast
3:15 PM 57.9 °F 56.5 °F 95% 29.94 in 10.0 mi East 10.4 mph - N/A   Overcast
3:35 PM 59.5 °F 57.6 °F 93% 29.94 in 10.0 mi ENE 11.5 mph - N/A   Overcast
3:55 PM 61.5 °F 58.1 °F 89% 29.93 in 10.0 mi ENE 10.4 mph - N/A   Overcast
4:15 PM 63.5 °F 58.6 °F 84% 29.93 in 10.0 mi East 10.4 mph - N/A   Mostly Cloudy
4:30 PM 66.0 °F 58.8 °F 78% 29.92 in 10.0 mi East 13.8 mph - N/A   Scattered Clouds
4:55 PM 66.2 °F 58.1 °F 75% 29.90 in 10.0 mi East 15.0 mph - N/A   Scattered Clouds
5:15 PM 67.5 °F 58.8 °F 74% 29.89 in 10.0 mi East 15.0 mph - N/A   Clear
5:35 PM 68.2 °F 59.2 °F 73% 29.89 in 10.0 mi East 15.0 mph - N/A   Clear
5:55 PM 69.3 °F 59.4 °F 71% 29.88 in 10.0 mi East 15.0 mph - N/A   Clear
6:15 PM 70.0 °F 59.9 °F 70% 29.87 in 10.0 mi East 17.3 mph - N/A   Clear
6:35 PM 69.3 °F 59.9 °F 72% 29.87 in 10.0 mi East 16.1 mph 19.6 mph N/A   Clear
6:55 PM 69.1 °F 59.7 °F 72% 29.86 in 10.0 mi East 13.8 mph - N/A   Clear
7:10 PM 68.9 °F 59.9 °F 73% 29.85 in 10.0 mi East 12.7 mph - N/A   Clear
7:35 PM 68.9 °F 59.4 °F 72% 29.85 in 10.0 mi East 11.5 mph - N/A   Clear
7:55 PM 68.2 °F 59.5 °F 74% 29.84 in 10.0 mi East 13.8 mph - N/A   Clear
8:15 PM 67.5 °F 59.4 °F 75% 29.84 in 10.0 mi East 11.5 mph - N/A   Clear
8:35 PM 67.1 °F 59.0 °F 75% 29.84 in 10.0 mi ESE 10.4 mph - N/A   Clear
8:55 PM 67.3 °F 58.3 °F 73% 29.84 in 10.0 mi ESE 13.8 mph - N/A   Clear
9:15 PM 67.5 °F 57.9 °F 71% 29.84 in 10.0 mi ESE 16.1 mph 21.9 mph N/A   Clear
9:30 PM 67.1 °F 57.9 °F 72% 29.83 in 10.0 mi ESE 19.6 mph - N/A   Clear
9:55 PM 66.4 °F 57.7 °F 74% 29.83 in 10.0 mi ESE 16.1 mph 20.7 mph N/A   Clear
10:15 PM 66.4 °F 57.6 °F 73% 29.84 in 10.0 mi ESE 16.1 mph - N/A   Clear
10:35 PM 66.2 °F 57.6 °F 74% 29.83 in 10.0 mi ESE 12.7 mph - N/A   Clear
10:55 PM 66.2 °F 57.6 °F 74% 29.84 in 10.0 mi SE 12.7 mph 17.3 mph N/A   Clear
11:15 PM 66.2 °F 57.6 °F 74% 29.85 in 10.0 mi SE 11.5 mph - N/A   Clear
11:35 PM 66.2 °F 57.6 °F 74% 29.84 in 10.0 mi SE 10.4 mph - N/A   Clear
11:55 PM 66.2 °F 57.6 °F 74% 29.85 in 10.0 mi SE 11.5 mph - N/A   Clear